{"data":{"norad_id":62736,"epoch":"2026-09-21T00:49:20.635968Z","epoch_age_seconds":125128,"freshness":"FRESH","line1":"1 62736U 25014B   26264.03426662  .00013259  00000+0  49031-3 0  9994","line2":"2 62736  43.0049 131.1092 0000913 289.6282  70.4471 15.27592421 93130","mean_motion":15.27592421,"eccentricity":9.13e-5,"inclination_deg":43.0049,"raan_deg":131.1092,"arg_perigee_deg":289.6282,"mean_anomaly_deg":70.4471,"bstar":0.00049031,"rev_number":9313,"period_min":94.265982221707,"perigee_km":482.38548045436,"apogee_km":483.63832624411,"semimajor_km":6861.1489033492,"source":"CELESTRAK","updated_at":"2026-09-22T09:00:49.655932Z"}}